User: anonymous   Login
Location: Unspecified
(0.0000°N, 0.0000°E)
Time: 19:41:49
(UTC+00:00)
Language:

USA-167 - Orbit

View from above orbital plane
View from above orbital plane
View from above satellite
View from above satellite

Ground track
Ground track

The orbit data is extracted from the following two-line orbital elements,

1 27691U 03008A   20047.20930977 +.00000040 +00000-0 +00000-0 0  9990
2 27691 006.4173 059.5292 0003703 317.4830 073.9681 01.00270135009764
Epoch (UTC): 16 February 2020 05:01:24
Eccentricity: 0.0003703
inclination: 6.4173°
perigee height: 35771 km
apogee height: 35802 km
right ascension of ascending node: 59.5292°
argument of perigee: 317.4830°
revolutions per day: 1.00270135
mean anomaly at epoch: 73.9681°
orbit number at epoch: 976

The dashed part of the orbit path shows where the satellite is in the earth's shadow,  

DLR